Regional Weather Roundup
Issued by NWS

Home | Current Version | Previous Version | Text Only | Print | Product List | Glossary On
Versions: 1 2 3 4 5 6 7 8 9 10 11 12 13 14 15 16 17 18 19 20 21 22 23 24 25 26 27 28 29 30 31 32 33 34 35 36 37 38 39 40 41 42 43 44 45 46 47 48
000
ASUS43 KDMX 260507
RWRIA

WEATHER ROUNDUP FOR IOWA
NATIONAL WEATHER SERVICE DES MOINES IA
1200 AM CDT SAT JUL 26 2014

NOTE: "FAIR" INDICATES FEW OR NO CLOUDS BELOW 12,000 FEET WITH NO
SIGNIFICANT WEATHER AND/OR OBSTRUCTIONS TO VISIBILITY.

* - THESE STATIONS ARE NOT NWS STATIONS...THUS NOT UNDER NWS
QUALITY CONTROL.  THEY ALSO DO NOT REPORT WEATHER SUCH
AS PRECIPITATION OR FOG.

IAZ001>003-012>014-020>022-031>034-043>046-260600-
   NORTHWEST IOWA

CITY           SKY/WX    TMP DP  RH WIND       PRES   REMARKS
CARROLL *      CLOUDY    70  70 100 N3        29.82S
CHEROKEE *     CLOUDY    75  73  94 CALM      29.83S
DENISON *      CLOUDY    73  73 100 NE5       29.80S
LE MARS *      PTCLDY    73  72  94 CALM      29.83S
ORANGE CITY *  CLEAR     75  70  83 CALM      29.84S
SHELDON *      PTCLDY    70  70 100 SE3       29.83S FOG
SIOUX CITY     PTCLDY    77  72  84 E5        29.82R
SPENCER        CLOUDY    72  69  90 SE3       29.84R
STORM LAKE *   CLOUDY    73  73 100 N5        29.86R
$$

IAZ055>058-069>071-079>083-090>094-260600-
   SOUTHWEST IOWA

CITY           SKY/WX    TMP DP  RH WIND       PRES   REMARKS
ATLANTIC *     CLOUDY    72  70  94 N6        29.80R
AUDUBON *      CLEAR     73  72  94 CALM      29.83R
CLARINDA *     CLEAR     75  73  94 N5        29.79R
COUNCIL BLFS *   N/A     75  75 100 NE5       29.79S
CRESTON *      CLEAR     72  70  94 NE6       29.80R
HARLAN  *      MOCLDY    73  72  94 N5        29.84S
LAMONI         CLEAR     75  72  90 SE9       29.78S
RED OAK *      CLEAR     73  72  94 NE5       29.79R
SHENANDOAH *   CLEAR     75  73  94 N6        29.78R
$$

IAZ047>049-059>061-072>074-084-260600-
   CENTRAL IOWA

CITY           SKY/WX    TMP DP  RH WIND       PRES   REMARKS
AMES           CLOUDY    73  71  93 E5        29.81F
ANKENY *       MOCLDY    73  72  94 E5        29.80S
CHARITON *     CLEAR     72  70  94 SE6       29.79S
DES MOINES     PTCLDY    75  70  84 E7        29.79S
GRINNELL*      PTCLDY    70  68  94 E6        29.83S
KNOXVILLE *    CLEAR     72  68  88 E7        29.78S
MARSHALLTOWN   CLOUDY    73  70  90 SE6       29.82S
PELLA *        CLEAR     71  69  93 E5        29.81S
PERRY *        CLOUDY    73  72  94 E3        29.81S
$$

IAZ004>006-015-016-023>025-035-036-260600-
   NORTH CENTRAL IOWA

CITY           SKY/WX    TMP DP  RH WIND       PRES   REMARKS
ALGONA *       CLOUDY    73  72  94 S5        29.85R
CLARION *      CLOUDY    73  72  94 CALM      29.84R
ESTHERVILLE    CLOUDY    71  69  93 S5        29.84R
FORT DODGE *   CLOUDY    72  70  94 E3        29.84R
MASON CITY     CLOUDY    73  71  93 CALM      29.86R
FOREST CITY *  CLOUDY    72  72 100 SE5       29.84S
IOWA FALLS *   CLOUDY    72  70  94 E3        29.84S
$$

IAZ007>011-017>019-026>030-037>042-050>054-066-260600-
   NORTHEAST IOWA

CITY           SKY/WX    TMP DP  RH WIND       PRES   REMARKS
CEDAR RAPIDS   CLOUDY    70  63  78 SE8       29.84S
CHARLES CITY * CLOUDY    70  68  94 SE6       29.86R
CLINTON *      CLOUDY    66  61  82 SE15      29.90F
DECORAH *      CLOUDY    66  66 100 S8        29.86R FOG
DUBUQUE        CLOUDY    65  62  90 S12G21    29.89R
MONTICELLO *   CLOUDY    68  64  88 SE9       29.87R
OELWEIN *      CLOUDY    68  64  88 SE10G16   29.87R
WATERLOO       CLOUDY    72  66  81 SE7       29.84R
$$

IAZ064-065-067-068-078-260600-
   EAST CENTRAL IOWA

CITY           SKY/WX    TMP DP  RH WIND       PRES   REMARKS
DAVENPORT      MOCLDY    68  62  81 SE13      29.88S
IOWA CITY      MOCLDY    70  64  81 SE8       29.85S
MT. PLEASANT * MOCLDY    70  61  73 SE7       29.84S
MUSCATINE *    CLOUDY    72  63  73 SE8G14    29.85S
QUAD CITIES    CLOUDY    69  62  78 SE9       29.87F
$$

IAZ062-063-075>077-085>089-095>099-260600-
   SOUTHEAST IOWA

CITY           SKY/WX    TMP DP  RH WIND       PRES   REMARKS
BURLINGTON     CLOUDY    71  61  70 SE10      29.85S
FAIRFIELD *    MOCLDY    72  64  78 SE9G15    29.83S
FORT MADISON * PTCLDY    72  63  73 SE8       29.86S
KEOKUK *       PTCLDY    72  64  78 SE8       29.83F
OSKALOOSA *      N/A     72  68  88 SE7       29.82S
CENTERVILLE *  CLEAR     72  70  94 SE6       29.82S
OTTUMWA        CLEAR     70  67  90 SE7       29.81S
WASHINGTON *   CLOUDY    70  64  83 SE7       29.84S
$$

ABBREVIATIONS USED IN REMARKS
   TC - TEMPERATURES IN CELSIUS
  WCI - WIND CHILL INDEX
   HX - HEAT INDEX
  VSB - VISIBILITY
$$




USA.gov is the U.S. government's official web portal to all federal, state and local government web resources and services.